This demonstration page uses our WeatherBlox Daily Observations layout. Learn more.

Left ArrowRight Arrow

41.12389, -100.76542

Hourly Observations for March 11, 2019

Temp ( °F °C ) Dew Point ( °F °C ) Humidity (%) Winds ( mph kmh ) Pressure ( in mb ) Visibility ( mi km ) Precip ( " mm )
12:53 am 00:53 Cloudy 31 -0.6 24 -4.4 76 76 SSE 9 15 30.26 1025 10 16 0.00 0.00
1:53 am 01:53 Cloudy 30 -1.1 24 -4.4 79 79 SSE 3 6 30.26 1025 10 16 0.00 0.00
2:53 am 02:53 Clear 30 -1.1 24 -4.4 79 79 SSW 8 13 30.27 1025 10 16 0.00 0.00
3:53 am 03:53 Clear 28 -2.2 23 -5 81 81 Calm 30.29 1026 10 16 0.00 0.00
4:53 am 04:53 Clear 25 -3.9 22 -5.6 88 88 Calm 30.29 1026 10 16 0.00 0.00
5:53 am 05:53 Clear 23 -5 21 -6.1 92 92 Calm 30.31 1026 10 16 0.00 0.00
6:53 am 06:53 Clear 22 -5.6 20 -6.7 92 92 Calm 30.31 1027 10 16 0.00 0.00
7:53 am 07:53 Clear 21 -6.1 19 -7.2 92 92 SSE 3 6 30.32 1027 10 16 0.00 0.00
8:53 am 08:53 Sunny 24 -4.4 22 -5.6 91 91 SE 3 6 30.36 1028 10 16 0.00 0.00
9:53 am 09:53 Sunny 30 -1.1 25 -3.9 82 82 SE 3 6 30.37 1028 10 16 0.00 0.00
10:53 am 10:53 Sunny 35 1.7 27 -2.8 72 72 SSW 7 11 30.35 1028 10 16 0.00 0.00
11:53 am 11:53 Sunny 38 3.3 27 -2.8 65 65 SSW 12 19 30.32 1027 10 16 0.00 0.00
12:53 pm 12:53 Sunny 40 4.4 29 -1.7 65 65 WSW 10 17 30.30 1026 10 16 0.00 0.00
1:53 pm 13:53 Sunny 44 6.7 29 -1.7 55 55 SSW 9 15 30.28 1025 10 16 0.00 0.00
2:53 pm 14:53 Sunny 46 7.8 31 -0.6 56 56 S 8 13 30.23 1024 10 16 0.00 0.00
3:53 pm 15:53 Sunny 46 7.8 31 -0.6 56 56 SSW 12 19 30.22 1023 10 16 0.00 0.00
4:53 pm 16:53 Mostly Cloudy 46 7.8 32 0 58 58 S 10 17 30.21 1023 10 16 0.00 0.00
5:35 pm 17:35 Cloudy 45 7.2 32 0 61 61 S 7 11 30.18 1022 10 16 0.00 0.00
5:53 pm 17:53 Cloudy 45 7.2 32 0 61 61 SSE 7 11 30.22 1023 10 16 0.00 0.00
6:18 pm 18:18 Cloudy 44 6.7 32 0 63 63 SSE 9 15 30.17 1022 10 16 0.00 0.00
6:53 pm 18:53 Cloudy 43 6.1 32 0 65 65 S 8 13 30.20 1023 10 16 0.00 0.00
7:53 pm 19:53 Cloudy 42 5.6 32 0 68 68 S 6 9 30.21 1023 10 16 0.00 0.00
8:53 pm 20:53 Cloudy 41 5 31 -0.6 67 67 S 13 20 30.22 1023 10 16 0.00 0.00
9:53 pm 21:53 Mostly Cloudy 38 3.3 31 -0.6 76 76 S 12 19 30.19 1023 10 16 0.00 0.00
10:00 pm 22:00 Partly Cloudy 38 3.3 32 0 79 79 S 10 17 30.21 1023 10 16 0.00 0.00
10:19 pm 22:19 Mostly Cloudy 39 3.9 32 0 76 76 SSE 5 7 30.20 1023 10 16 0.00 0.00
10:53 pm 22:53 Cloudy 40 4.4 31 -0.6 70 70 SSE 8 13 30.18 1022 10 16 0.00 0.00
11:53 pm 23:53 Cloudy 38 3.3 32 0 79 79 S 6 9 30.15 1021 10 16 0.00 0.00

Powered by AerisWeather